Lid_Strength_Index
1 0 -1 -1 -1 -1 -1 -1 -1 -1 -2 -2 -2 -2 -2 -2 -2 -2 -2 -3 -4 -3 -3 -2 -2 -2 -2 -2 -1 -0 4 3
1 0 -1 -0 -1 -1 -1 -1 -1 -2 -2 -2 -2 -2 -3 -3 -3 -3 -3 -3 -2 -2 -1 -1 -2 -2 -2 -2 -1 0 4 4
1 0 0 -0 -0 -1 -2 -2 -2 -2 -2 -2 -1 -1 -1 -1 -2 -2 -2 -2 -1 -1 -2 -2 -1 -0 -2 -1 0 4 4 3
0 0 0 0 -0 -0 -0 -1 -0 -0 -1 -0 0 -0 -0 -1 -1 -2 -2 -1 -1 -2 -1 -0 1 3 2 1 3 4 5 4
0 0 -0 0 -0 -0 0 0 0 1 1 1 1 0 -0 1 1 1 1 0 2 2 3 3 4 4 4 4 5 5 6 5
0 0 0 1 -0 -0 0 -0 0 1 1 0 1 0 1 2 2 2 2 3 4 5 5 5 5 5 5 5 6 7 7 6
1 0 1 0 0 0 0 0 0 0 1 1 1 1 2 3 3 4 4 4 5 6 6 6 6 6 7 6 7 7 7 7
1 1 1 -0 0 1 0 0 1 2 2 2 2 3 4 4 4 5 5 5 6 7 7 7 7 7 7 7 7 7 7 7
3 0 0 0 0 0 1 2 2 2 2 2 4 4 4 5 5 5 5 6 6 7 7 7 7 7 8 7 7 7 7 7
1 0 1 2 3 3 3 3 2 2 3 3 3 4 4 5 6 6 6 6 6 7 7 8 8 8 9 9 8 7 8 7
2 2 3 3 3 4 4 4 3 3 4 3 3 4 4 6 6 6 6 6 7 7 7 8 8 8 8 8 8 8 8 7
2 3 3 4 4 4 5 5 4 4 4 4 4 4 4 5 6 6 6 7 7 7 7 8 8 8 7 8 9 8 8 9
2 3 4 4 4 5 5 5 5 5 5 5 4 4 5 5 5 6 6 7 7 7 7 8 8 8 9 9 9 9 9 9
3 3 4 4 4 5 4 5 5 6 6 5 4 5 5 5 6 6 6 7 7 7 8 8 8 8 9 10 11 10 10 8
3 3 3 4 4 4 5 6 6 5 5 4 4 4 4 5 5 6 6 6 7 7 7 8 9 8 8 9 12 13 12 10
3 3 3 3 3 4 5 6 5 5 5 4 4 4 4 4 5 6 6 6 7 7 7 9 9 10 9 8 9 10 12 12
3 3 3 3 2 3 4 6 5 4 4 4 4 4 4 5 5 6 7 7 8 9 9 10 10 10 10 10 10 10 11 12
3 3 3 2 2 3 3 4 4 4 4 5 5 5 6 6 7 7 8 8 8 9 10 10 10 10 10 10 10 10 10 9
3 3 3 2 2 3 4 4 4 4 4 4 6 7 7 7 7 8 8 8 9 9 10 10 10 10 10 9 9 9 8 7
3 3 3 3 4 5 5 5 5 5 5 5 6 7 7 8 7 7 8 9 9 9 9 9 10 10 10 10 9 9 8 9